Time,TemperatureF,DewpointF,PressureIn,WindDirection,WindDirectionDegrees,WindSpeedMPH,WindSpeedGustMPH,Humidity,HourlyPrecipIn,Conditions,Clouds,dailyrainin,SoftwareType,DateUTC
2013-03-21 00:03:00,20.0,14.0,30.00,WNW,303,2.0,5.0,78,0.00,,,0.00,,2013-03-21 04:03:00,
2013-03-21 00:13:00,20.0,14.0,30.00,WNW,303,2.0,5.0,78,0.00,,,0.00,,2013-03-21 04:13:00,
2013-03-21 00:23:00,19.0,14.0,30.00,West,267,3.0,6.0,79,0.00,,,0.00,,2013-03-21 04:23:00,
2013-03-21 00:33:00,19.0,14.0,30.00,West,264,2.0,5.0,81,0.00,,,0.00,,2013-03-21 04:33:00,
2013-03-21 00:43:00,19.0,14.0,30.00,West,264,2.0,5.0,81,0.00,,,0.00,,2013-03-21 04:43:00,
2013-03-21 00:53:00,19.0,14.0,30.00,West,268,1.0,5.0,81,0.00,,,0.00,,2013-03-21 04:53:00,
2013-03-21 01:03:00,18.0,14.0,29.99,West,273,3.0,5.0,83,0.00,,,0.00,,2013-03-21 05:03:00,
2013-03-21 01:12:00,18.0,14.0,29.99,West,273,3.0,5.0,83,0.00,,,0.00,,2013-03-21 05:12:00,
2013-03-21 01:22:00,18.0,14.0,30.00,West,281,3.0,6.0,84,0.00,,,0.00,,2013-03-21 05:22:00,
2013-03-21 01:33:00,19.0,15.0,29.99,WNW,287,4.0,6.0,85,0.00,,,0.00,,2013-03-21 05:33:00,
2013-03-21 01:44:00,19.0,15.0,29.99,WNW,287,4.0,6.0,85,0.00,,,0.00,,2013-03-21 05:44:00,
2013-03-21 01:52:00,19.0,15.0,29.99,West,281,3.0,6.0,85,0.00,,,0.00,,2013-03-21 05:52:00,
2013-03-21 02:03:00,20.0,16.0,29.99,West,266,2.0,6.0,83,0.00,,,0.00,,2013-03-21 06:03:00,
2013-03-21 02:12:00,20.0,16.0,29.99,West,266,2.0,6.0,83,0.00,,,0.00,,2013-03-21 06:12:00,
2013-03-21 02:22:00,20.0,16.0,29.99,WNW,284,4.0,6.0,83,0.00,,,0.00,,2013-03-21 06:22:00,
2013-03-21 02:32:00,20.0,15.0,29.98,West,263,3.0,7.0,82,0.00,,,0.00,,2013-03-21 06:32:00,
2013-03-21 02:42:00,20.0,15.0,29.98,West,263,3.0,7.0,82,0.00,,,0.00,,2013-03-21 06:42:00,
2013-03-21 02:52:00,19.0,14.0,29.98,West,261,3.0,8.0,81,0.00,,,0.00,,2013-03-21 06:52:00,
2013-03-21 03:02:00,19.0,14.0,29.98,WNW,284,5.0,8.0,82,0.00,,,0.00,,2013-03-21 07:02:00,
2013-03-21 03:13:00,19.0,14.0,29.98,WNW,284,5.0,8.0,82,0.00,,,0.00,,2013-03-21 07:13:00,
2013-03-21 03:22:00,19.0,14.0,29.98,West,273,5.0,8.0,82,0.00,,,0.00,,2013-03-21 07:22:00,
2013-03-21 03:32:00,19.0,14.0,29.98,West,279,5.0,8.0,82,0.00,,,0.00,,2013-03-21 07:32:00,
2013-03-21 03:42:00,19.0,14.0,29.98,West,279,5.0,8.0,82,0.00,,,0.00,,2013-03-21 07:42:00,
2013-03-21 03:52:00,19.0,15.0,29.98,West,279,4.0,7.0,83,0.00,,,0.00,,2013-03-21 07:52:00,
2013-03-21 04:02:00,19.0,15.0,29.97,West,269,4.0,9.0,83,0.00,,,0.00,,2013-03-21 08:02:00,
2013-03-21 04:13:00,19.0,15.0,29.97,West,269,4.0,9.0,83,0.00,,,0.00,,2013-03-21 08:13:00,
2013-03-21 04:23:00,19.0,15.0,29.97,WNW,290,5.0,8.0,83,0.00,,,0.00,,2013-03-21 08:23:00,
2013-03-21 04:33:00,19.0,15.0,29.96,West,278,5.0,8.0,84,0.00,,,0.00,,2013-03-21 08:33:00,
2013-03-21 04:42:00,19.0,15.0,29.96,West,278,5.0,8.0,84,0.00,,,0.00,,2013-03-21 08:42:00,
2013-03-21 04:52:00,19.0,15.0,29.96,West,275,5.0,9.0,83,0.00,,,0.00,,2013-03-21 08:52:00,
2013-03-21 05:02:00,19.0,15.0,29.96,WNW,285,4.0,7.0,84,0.00,,,0.00,,2013-03-21 09:02:00,
2013-03-21 05:11:00,19.0,15.0,29.96,WNW,285,4.0,7.0,84,0.00,,,0.00,,2013-03-21 09:11:00,
2013-03-21 05:22:00,18.0,15.0,29.96,WNW,286,4.0,6.0,86,0.00,,,0.00,,2013-03-21 09:22:00,
2013-03-21 05:33:00,18.0,15.0,29.96,West,275,3.0,6.0,87,0.00,,,0.00,,2013-03-21 09:33:00,
2013-03-21 05:43:00,18.0,15.0,29.96,West,275,3.0,6.0,87,0.00,,,0.00,,2013-03-21 09:43:00,
2013-03-21 05:53:00,18.0,15.0,29.96,WNW,287,3.0,7.0,87,0.00,,,0.00,,2013-03-21 09:53:00,
2013-03-21 06:03:00,18.0,15.0,29.96,West,279,2.0,7.0,87,0.00,,,0.00,,2013-03-21 10:03:00,
2013-03-21 06:12:00,18.0,15.0,29.96,West,279,2.0,7.0,87,0.00,,,0.00,,2013-03-21 10:12:00,
2013-03-21 06:23:00,17.0,14.0,29.96,West,281,3.0,7.0,88,0.00,,,0.00,,2013-03-21 10:23:00,
2013-03-21 06:34:00,17.0,14.0,29.96,WNW,285,3.0,7.0,88,0.00,,,0.00,,2013-03-21 10:34:00,
2013-03-21 06:42:00,17.0,14.0,29.96,WNW,285,3.0,7.0,88,0.00,,,0.00,,2013-03-21 10:42:00,
2013-03-21 06:53:00,17.0,14.0,29.96,West,280,3.0,8.0,88,0.00,,,0.00,,2013-03-21 10:53:00,
2013-03-21 07:03:00,17.0,14.0,29.96,West,269,2.0,5.0,88,0.00,,,0.00,,2013-03-21 11:03:00,
2013-03-21 07:13:00,17.0,14.0,29.96,West,269,2.0,5.0,88,0.00,,,0.00,,2013-03-21 11:13:00,
2013-03-21 07:22:00,17.0,14.0,29.96,WNW,302,4.0,9.0,88,0.00,,,0.00,,2013-03-21 11:22:00,
2013-03-21 07:33:00,17.0,14.0,29.96,WNW,289,2.0,7.0,88,0.00,,,0.00,,2013-03-21 11:33:00,
2013-03-21 07:43:00,17.0,14.0,29.96,WNW,289,2.0,7.0,88,0.00,,,0.00,,2013-03-21 11:43:00,
2013-03-21 07:52:00,18.0,15.0,29.96,WNW,289,5.0,9.0,88,0.00,,,0.00,,2013-03-21 11:52:00,
2013-03-21 08:03:00,18.0,15.0,29.96,WNW,302,5.0,10.0,88,0.00,,,0.00,,2013-03-21 12:03:00,
2013-03-21 08:12:00,18.0,15.0,29.96,WNW,302,5.0,10.0,88,0.00,,,0.00,,2013-03-21 12:12:00,
2013-03-21 08:22:00,18.0,15.0,29.96,West,280,4.0,10.0,88,0.00,,,0.00,,2013-03-21 12:22:00,
2013-03-21 08:33:00,18.0,15.0,29.96,WNW,284,5.0,10.0,87,0.00,,,0.00,,2013-03-21 12:33:00,
2013-03-21 08:43:00,18.0,15.0,29.96,WNW,284,5.0,10.0,87,0.00,,,0.00,,2013-03-21 12:43:00,
2013-03-21 08:52:00,18.0,15.0,29.96,West,280,4.0,11.0,87,0.00,,,0.00,,2013-03-21 12:52:00,
2013-03-21 09:03:00,18.0,15.0,29.97,West,276,4.0,11.0,87,0.00,,,0.00,,2013-03-21 13:03:00,
2013-03-21 09:12:00,18.0,15.0,29.97,West,276,4.0,11.0,87,0.00,,,0.00,,2013-03-21 13:12:00,
2013-03-21 09:22:00,19.0,16.0,29.97,WNW,290,5.0,10.0,86,0.00,,,0.00,,2013-03-21 13:22:00,
2013-03-21 09:32:00,19.0,16.0,29.97,WNW,283,5.0,12.0,86,0.00,,,0.00,,2013-03-21 13:32:00,
2013-03-21 09:42:00,19.0,16.0,29.97,WNW,283,5.0,12.0,86,0.00,,,0.00,,2013-03-21 13:42:00,
2013-03-21 09:53:00,20.0,16.0,29.97,WSW,250,5.0,12.0,86,0.00,,,0.00,,2013-03-21 13:53:00,
2013-03-21 10:02:00,22.0,18.0,29.97,WNW,291,8.0,15.0,84,0.00,,,0.00,,2013-03-21 14:02:00,
2013-03-21 10:12:00,23.0,18.0,29.97,WNW,285,9.0,15.0,82,0.00,,,0.00,,2013-03-21 14:12:00,
2013-03-21 10:22:00,23.0,18.0,29.97,WNW,285,9.0,15.0,82,0.00,,,0.00,,2013-03-21 14:22:00,
2013-03-21 10:32:00,24.0,19.0,29.97,West,271,8.0,15.0,80,0.00,,,0.00,,2013-03-21 14:32:00,
2013-03-21 10:42:00,24.0,19.0,29.97,West,271,8.0,15.0,80,0.00,,,0.00,,2013-03-21 14:42:00,
2013-03-21 10:52:00,24.0,19.0,29.97,WNW,290,9.0,13.0,80,0.00,,,0.00,,2013-03-21 14:52:00,
2013-03-21 11:03:00,25.0,20.0,29.97,WNW,288,7.0,13.0,80,0.00,,,0.00,,2013-03-21 15:03:00,
2013-03-21 11:12:00,25.0,20.0,29.97,WNW,288,7.0,13.0,80,0.00,,,0.00,,2013-03-21 15:12:00,
2013-03-21 11:22:00,26.0,20.0,29.97,WNW,294,8.0,13.0,77,0.00,,,0.00,,2013-03-21 15:22:00,
2013-03-21 11:33:00,26.0,19.0,29.98,West,279,7.0,15.0,76,0.00,,,0.00,,2013-03-21 15:33:00,
2013-03-21 11:42:00,26.0,19.0,29.98,West,279,7.0,15.0,76,0.00,,,0.00,,2013-03-21 15:42:00,
2013-03-21 11:53:00,26.0,19.0,29.98,West,279,7.0,15.0,76,0.00,,,0.00,,2013-03-21 15:53:00,
2013-03-21 12:03:00,26.0,19.0,29.98,WSW,254,8.0,13.0,76,0.00,,,0.00,,2013-03-21 16:03:00,
2013-03-21 12:12:00,26.0,19.0,29.98,WSW,254,8.0,13.0,76,0.00,,,0.00,,2013-03-21 16:12:00,
2013-03-21 12:23:00,27.0,20.0,29.98,WNW,302,9.0,15.0,73,0.00,,,0.00,,2013-03-21 16:23:00,
2013-03-21 12:33:00,28.0,20.0,29.98,West,277,9.0,16.0,73,0.00,,,0.00,,2013-03-21 16:33:00,
2013-03-21 12:42:00,28.0,20.0,29.98,West,277,9.0,16.0,73,0.00,,,0.00,,2013-03-21 16:42:00,
2013-03-21 12:53:00,28.0,20.0,29.98,West,280,8.0,18.0,73,0.00,,,0.00,,2013-03-21 16:53:00,
2013-03-21 13:03:00,28.0,20.0,29.99,WNW,302,7.0,15.0,71,0.00,,,0.00,,2013-03-21 17:03:00,
2013-03-21 13:12:00,28.0,20.0,29.99,WNW,302,7.0,15.0,71,0.00,,,0.00,,2013-03-21 17:12:00,
2013-03-21 13:23:00,28.0,21.0,29.99,WNW,297,10.0,15.0,75,0.00,,,0.00,,2013-03-21 17:23:00,
2013-03-21 13:33:00,28.0,21.0,29.98,WNW,290,9.0,15.0,74,0.00,,,0.00,,2013-03-21 17:33:00,
2013-03-21 13:43:00,28.0,21.0,29.98,WNW,290,9.0,15.0,74,0.00,,,0.00,,2013-03-21 17:43:00,
2013-03-21 13:53:00,29.0,21.0,29.98,NNW,335,9.0,16.0,71,0.00,,,0.00,,2013-03-21 17:53:00,
2013-03-21 14:02:00,30.0,21.0,29.98,WNW,287,9.0,15.0,68,0.00,,,0.00,,2013-03-21 18:02:00,
2013-03-21 14:12:00,30.0,21.0,29.98,WNW,287,9.0,15.0,68,0.00,,,0.00,,2013-03-21 18:12:00,
2013-03-21 14:23:00,30.0,22.0,29.98,NW,318,11.0,16.0,71,0.00,,,0.00,,2013-03-21 18:23:00,
2013-03-21 14:32:00,30.0,22.0,29.98,NW,318,11.0,16.0,71,0.00,,,0.00,,2013-03-21 18:32:00,
2013-03-21 14:42:00,30.0,22.0,29.98,NW,318,11.0,16.0,71,0.00,,,0.00,,2013-03-21 18:42:00,
2013-03-21 14:52:00,32.0,21.0,29.98,NW,309,9.0,16.0,63,0.00,,,0.00,,2013-03-21 18:52:00,
2013-03-21 15:02:00,31.0,20.0,29.97,WNW,296,9.0,17.0,64,0.00,,,0.00,,2013-03-21 19:02:00,
2013-03-21 15:12:00,31.0,20.0,29.97,WNW,296,9.0,17.0,64,0.00,,,0.00,,2013-03-21 19:12:00,
2013-03-21 15:22:00,31.0,21.0,29.97,WNW,298,11.0,18.0,66,0.00,,,0.00,,2013-03-21 19:22:00,
2013-03-21 15:32:00,32.0,22.0,29.96,WNW,285,11.0,19.0,65,0.00,,,0.00,,2013-03-21 19:32:00,
2013-03-21 15:43:00,32.0,22.0,29.96,WNW,285,11.0,19.0,65,0.00,,,0.00,,2013-03-21 19:43:00,
2013-03-21 15:53:00,32.0,21.0,29.96,WNW,294,9.0,14.0,63,0.00,,,0.00,,2013-03-21 19:53:00,
2013-03-21 16:02:00,31.0,21.0,29.97,West,268,9.0,16.0,65,0.00,,,0.00,,2013-03-21 20:02:00,
2013-03-21 16:12:00,31.0,21.0,29.97,West,268,9.0,16.0,65,0.00,,,0.00,,2013-03-21 20:12:00,
2013-03-21 16:23:00,31.0,21.0,29.97,WNW,302,9.0,14.0,66,0.00,,,0.00,,2013-03-21 20:23:00,
2013-03-21 16:33:00,31.0,21.0,29.97,WNW,289,9.0,16.0,66,0.00,,,0.00,,2013-03-21 20:33:00,
2013-03-21 16:42:00,31.0,21.0,29.97,WNW,289,9.0,16.0,66,0.00,,,0.00,,2013-03-21 20:42:00,
2013-03-21 16:53:00,31.0,21.0,29.97,WNW,284,10.0,15.0,66,0.00,,,0.00,,2013-03-21 20:53:00,
2013-03-21 17:03:00,31.0,20.0,29.97,WNW,293,11.0,17.0,63,0.00,,,0.00,,2013-03-21 21:03:00,
2013-03-21 17:12:00,31.0,20.0,29.97,WNW,293,11.0,17.0,63,0.00,,,0.00,,2013-03-21 21:12:00,
2013-03-21 17:23:00,32.0,20.0,29.97,NW,309,9.0,14.0,61,0.00,,,0.00,,2013-03-21 21:23:00,
2013-03-21 17:33:00,32.0,20.0,29.97,WNW,293,9.0,15.0,62,0.00,,,0.00,,2013-03-21 21:33:00,
2013-03-21 17:43:00,32.0,20.0,29.97,WNW,293,9.0,15.0,62,0.00,,,0.00,,2013-03-21 21:43:00,
2013-03-21 17:53:00,33.0,20.0,29.97,NW,311,8.0,14.0,59,0.00,,,0.00,,2013-03-21 21:53:00,
2013-03-21 18:03:00,32.0,21.0,29.97,West,281,6.0,14.0,63,0.00,,,0.00,,2013-03-21 22:03:00,
2013-03-21 18:13:00,32.0,21.0,29.97,West,281,6.0,14.0,63,0.00,,,0.00,,2013-03-21 22:13:00,
2013-03-21 18:23:00,32.0,20.0,29.97,West,275,8.0,13.0,60,0.00,,,0.00,,2013-03-21 22:23:00,
2013-03-21 18:33:00,32.0,21.0,29.97,NW,315,8.0,13.0,63,0.00,,,0.00,,2013-03-21 22:33:00,
2013-03-21 18:42:00,32.0,21.0,29.97,NW,315,8.0,13.0,63,0.00,,,0.00,,2013-03-21 22:42:00,
2013-03-21 18:53:00,32.0,20.0,29.97,NW,306,9.0,14.0,61,0.00,,,0.00,,2013-03-21 22:53:00,
2013-03-21 19:02:00,32.0,20.0,29.97,WNW,292,8.0,14.0,62,0.00,,,0.00,,2013-03-21 23:02:00,
2013-03-21 19:12:00,32.0,20.0,29.97,WNW,292,8.0,14.0,62,0.00,,,0.00,,2013-03-21 23:12:00,
2013-03-21 19:22:00,32.0,20.0,29.98,West,280,10.0,16.0,60,0.00,,,0.00,,2013-03-21 23:22:00,
2013-03-21 19:33:00,31.0,19.0,29.98,WNW,298,9.0,15.0,60,0.00,,,0.00,,2013-03-21 23:33:00,
2013-03-21 19:43:00,31.0,19.0,29.98,WNW,298,9.0,15.0,60,0.00,,,0.00,,2013-03-21 23:43:00,
2013-03-21 19:53:00,30.0,18.0,29.98,WNW,291,8.0,12.0,61,0.00,,,0.00,,2013-03-21 23:53:00,
2013-03-21 20:03:00,30.0,19.0,29.98,NW,322,7.0,13.0,63,0.00,,,0.00,,2013-03-22 00:03:00,
2013-03-21 20:12:00,30.0,19.0,29.98,NW,322,7.0,13.0,63,0.00,,,0.00,,2013-03-22 00:12:00,
2013-03-21 20:22:00,29.0,19.0,29.99,West,281,6.0,11.0,66,0.00,,,0.00,,2013-03-22 00:22:00,
2013-03-21 20:32:00,28.0,19.0,29.99,West,271,6.0,9.0,69,0.00,,,0.00,,2013-03-22 00:32:00,
2013-03-21 20:42:00,28.0,19.0,29.99,West,271,6.0,9.0,69,0.00,,,0.00,,2013-03-22 00:42:00,
2013-03-21 20:52:00,28.0,20.0,30.00,NW,308,6.0,9.0,71,0.00,,,0.00,,2013-03-22 00:52:00,
2013-03-21 21:03:00,28.0,20.0,30.00,NW,308,6.0,9.0,71,0.00,,,0.00,,2013-03-22 01:03:00,
2013-03-21 21:12:00,28.0,20.0,30.00,NW,308,6.0,9.0,71,0.00,,,0.00,,2013-03-22 01:12:00,
2013-03-21 21:22:00,27.0,20.0,30.00,WNW,302,6.0,11.0,73,0.00,,,0.00,,2013-03-22 01:22:00,
2013-03-21 21:32:00,26.0,19.0,30.00,WNW,290,4.0,6.0,74,0.00,,,0.00,,2013-03-22 01:32:00,
2013-03-21 21:43:00,26.0,19.0,30.00,WNW,290,4.0,6.0,74,0.00,,,0.00,,2013-03-22 01:43:00,
2013-03-21 21:53:00,25.0,19.0,30.00,WNW,292,6.0,8.0,76,0.00,,,0.00,,2013-03-22 01:53:00,
2013-03-21 22:02:00,25.0,19.0,30.01,West,269,4.0,7.0,76,0.00,,,0.00,,2013-03-22 02:02:00,
2013-03-21 22:12:00,25.0,19.0,30.01,West,269,4.0,7.0,76,0.00,,,0.00,,2013-03-22 02:12:00,
2013-03-21 22:22:00,25.0,19.0,30.01,West,269,4.0,7.0,76,0.00,,,0.00,,2013-03-22 02:22:00,
2013-03-21 22:32:00,24.0,18.0,30.01,WNW,293,4.0,7.0,78,0.00,,,0.00,,2013-03-22 02:32:00,
2013-03-21 22:43:00,24.0,18.0,30.01,WNW,293,4.0,7.0,78,0.00,,,0.00,,2013-03-22 02:43:00,
2013-03-21 22:52:00,24.0,18.0,30.01,NW,304,5.0,7.0,78,0.00,,,0.00,,2013-03-22 02:52:00,
2013-03-21 23:02:00,24.0,18.0,30.01,WNW,298,3.0,6.0,79,0.00,,,0.00,,2013-03-22 03:02:00,
2013-03-21 23:12:00,24.0,18.0,30.01,WNW,298,3.0,6.0,79,0.00,,,0.00,,2013-03-22 03:12:00,
2013-03-21 23:22:00,23.0,18.0,30.01,WNW,294,2.0,5.0,81,0.00,,,0.00,,2013-03-22 03:22:00,
2013-03-21 23:33:00,22.0,18.0,30.01,WNW,290,1.0,3.0,83,0.00,,,0.00,,2013-03-22 03:33:00,
2013-03-21 23:43:00,22.0,18.0,30.01,WNW,290,1.0,3.0,83,0.00,,,0.00,,2013-03-22 03:43:00,
2013-03-21 23:53:00,22.0,18.0,30.02,WNW,290,2.0,4.0,83,0.00,,,0.00,,2013-03-22 03:53:00,